EHI
0 0 0 0 0 0 0 0 0 0 0 0 0 0 0 0 0 0 0 0 0 0 0 0 0 0 0 0 0 0 0 0 0 0 0 0 0 0 0 0 0 0 0 0
0 0 0 0 0 0 0 0 0 0 0 0 0 0 0 0 0 0 0 0 0 0 0 0 0 0 0 0 0 0 0 0 0 0 0 0 0 0 0 0 0 0 0 0
0 0 0 0 0 0 0 0 0 0 0 0 0 0 0 0 0 0 0 0 0 0 0 0 0 0 0 0 0 0 0 0 0 0 0 0 0 0 0 0 0 0 0 0
0 0 0 0 0 0 0 0 0 0 0 0 0 0 0 0 0 0 0 0 0 0 0 0 0 0 0 0 0 0 0 0 0 0 0 0 0 0 0 0 0 0 0 0
0 0 0 0 0 0 0 0 0 0 0 0 0 0 0 0 0 0 0 0 0 0 0 0 0 0 0 0 0 0 0 0 0 0 0 0 0 0 0 0 0 0 0 0
0 0 0 0 0 0 0 0 0 0 0 0 0 0 0 0 0 0 0 0 0 0 0 0 0 0 0 0 0 0 0 0 0 0 0 0 0 0 0 0 0 0 0 0
0 0 0 0 0 0 0 0 0 0 0 0 0 0 0 0 0 0 0 0 0 0 0 0 0 0 0 0 0 0 0 0 0 0 0 0 0 0 0 0 0 0 0 0
0 0 0 0 0 0 0 0 0 0 0 0 0 0 0 0 0 0 0 0 0 0 0 0 0 0 0 0 0 0 0 0 0 0 0 0 0 0 0 0 0 0 0 0
0 0 0 0 0 0 0 0 0 0 0 0 0 0 0 0 0 0 0 0 0 0 0 0 0 0 0 0 0 0 0 0 0 0 0 0 0 0 0 0 0 0 0 0
0 0 0 0 0 0 0 0 0 0 0 0 0 0 0 0 0 0 0 0 0 0 0 0 0 0 0 0 0 0 0 0 0 0 0 0 0 0 0 0 0 0 0 0
0 0 0 0 0 0 0 0 0 0 0 0 0 0 0 0 0 0 0 0 0 0 0 0 0 0 0 0 0 0 0 0 0 0 0 0 0 0 0 0 0 0 0 0
0 0 0 0 0 0 0 0 0 0 0 0 0 0 0 0 0 0 0 0 0 0 0 0 0 0 0 0 0 0 0 0 0 0 0 0 0 0 0 0 0 0 0 0
0 0 0 0 0 0 0 0 0 0 0 0 0 0 0 0 0 0 0 0 0 0 0 0 0 0 0 0 0 0 0 0 0 0 0 0 0 0 0 0 0 0 0 0
0 0 0 0 0 0 0 0 0 0 0 0 0 0 0 0 0 0 0 0 0 0 0 0 0 0 0 0 0 0 0 0 0 0 0 0 0 0 0 0 0 0 0 0
0 0 0 0 0 0 0 0 0 0 0 0 0 0 0 0 0 0 0 0 0 0 0 0 0 0 0 0 0 0 0 0 0 0 0 0 0 0 0 0 0 0 0 0
0 0 0 0 0 0 0 0 0 0 0 0 0 0 0 0 0 0 0 0 0 0 0 0 0 0 0 0 0 0 0 0 0 0 0 0 0 0 0 0 0 0 0 0
0 0 0 0 0 0 0 0 0 0 0 0 0 0 0 0 0 0 0 0 0 0 0 0 0 0 0 0 0 0 0 0 0 0 0 0 0 0 0 0 0 0 0 0
0 0 0 0 0 0 0 0 0 0 0 0 0 0 0 0 0 0 0 0 0 0 0 0 0 0 0 0 0 0 0 0 0 0 0 0 0 0 0 0 0 0 0 0
0 0 0 0 0 0 0 0 0 0 0 0 0 0 0 0 0 0 0 0 0 0 0 0 0 0 0 0 0 0 0 0 0 0 0 0 0 0 0 0 0 0 0 0
0 0 0 0 0 0 0 0 0 0 0 0 0 0 0 0 0 0 0 0 0 0 0 0 0 0 0 0 0 0 0 0 0 0 0 0 0 0 0 0 0 0 0 0
0 0 0 0 0 0 0 0 0 0 0 0 0 0 0 0 0 0 0 0 0 0 0 0 0 0 0 0 0 0 0 0 0 0 0 0 0 0 0 0 0 0 0 0
0 0 0 0 0 0 0 0 0 0 0 0 0 0 0 0 0 0 0 0 0 0 0 0 0 0 0 0 0 0 0 0 0 0 0 0 0 0 0 0 0 0 0 0
0 0 0 0 0 0 0 0 0 0 0 0 0 0 0 0 0 0 0 0 0 0 0 0 0 0 0 0 0 0 0 0 0 0 0 0 0 0 0 0 0 0 0 0
0 0 0 0 0 0 0 0 0 0 0 0 0 0 0 0 0 0 0 0 0 0 0 0 0 0 0 0 0 0 0 0 0 0 0 0 0 0 0 0 0 0 0 0
0 0 0 0 0 0 0 0 0 0 0 0 0 0 0 0 0 0 0 0 0 0 0 0 0 0 0 0 0 0 0 0 0 0 0 0 0 0 0 0 0 0 0 0
0 0 0 0 0 0 0 0 0 0 0 0 0 0 0 0 0 0 0 0 0 0 0 0 0 0 0 0 0 0 0 0 0 0 0 0 0 0 0 0 0 0 0 0
0 0 0 0 0 0 0 0 0 0 0 0 0 0 0 0 0 0 0 0 0 0 0 0 0 0 0 0 0 0 0 0 0 0 0 0 0 0 0 0 0 0 0 0
Wind_Speed
5 6 15 17 20 22 24 21 15 14 15 13 8 6 7 10 12 13 14 14 14 13 12 11 10 9 7 7 6 4 3 2 3 4 5 5 6 7 8 8 9 10 11 11
5 5 11 13 20 24 26 25 23 17 15 10 5 6 8 10 12 13 13 14 14 13 13 12 10 9 7 6 5 3 2 2 3 4 5 6 7 8 8 9 10 10 11 12
4 5 7 11 18 23 23 24 23 24 20 7 8 9 9 10 11 11 12 13 14 14 12 11 9 8 7 6 5 3 1 2 4 5 6 7 8 8 9 10 11 12 12 13
4 7 9 6 2 15 21 21 20 15 6 11 10 8 6 6 9 10 10 12 12 12 11 10 9 8 7 6 4 2 1 2 4 5 7 8 9 9 10 10 11 12 13 14
3 6 7 4 5 8 13 14 14 13 8 10 13 10 6 3 4 6 8 9 11 11 11 10 9 8 7 5 3 1 2 3 5 6 8 9 10 10 11 11 12 12 13 14
4 5 7 1 5 6 7 7 9 12 14 15 14 10 7 6 6 8 9 10 11 11 11 10 8 7 6 4 2 1 3 4 5 7 8 9 10 11 11 11 12 13 13 13
7 7 7 3 6 9 8 2 11 13 14 14 7 5 10 10 8 9 10 11 12 11 9 8 8 6 5 3 1 2 3 5 6 7 8 10 10 10 11 11 13 13 14 13
8 8 7 7 9 8 2 8 12 13 11 10 10 10 10 9 10 10 11 11 11 10 9 7 6 5 3 1 1 2 4 6 7 8 8 8 10 11 11 12 13 13 13 13
7 4 3 3 2 1 8 13 11 10 10 11 10 8 8 8 9 10 10 10 9 9 9 7 5 3 1 1 2 4 5 7 8 9 9 9 10 11 11 11 10 11 12 12
3 2 1 1 3 6 10 10 10 10 10 9 8 9 8 8 8 9 9 9 8 9 8 6 5 3 1 1 2 4 7 8 8 9 9 9 8 8 9 10 10 11 12 13
4 3 4 4 6 9 9 11 11 9 7 8 9 8 7 7 8 8 8 8 7 7 6 6 5 3 1 1 3 6 7 8 8 8 9 9 9 8 10 10 11 14 13 13
7 11 8 10 10 10 12 10 10 9 7 6 6 7 6 6 6 7 8 8 7 7 6 6 4 2 2 3 5 6 7 7 6 7 8 8 10 10 10 12 17 19 20 19
3 7 5 12 11 9 9 9 8 8 8 6 5 6 6 5 6 8 8 9 8 7 6 5 4 3 3 4 5 7 7 7 7 7 8 9 9 10 11 12 14 16 18 20
7 8 8 10 9 9 9 9 8 8 6 6 6 6 6 6 7 8 9 8 7 6 5 4 4 4 4 4 5 7 7 7 8 8 8 9 9 10 11 12 13 11 14 19
4 3 9 11 11 10 8 8 8 6 6 5 5 6 6 7 8 8 7 7 6 5 5 4 5 4 3 4 5 7 7 6 7 8 8 9 9 10 10 12 12 13 13 14
8 9 11 12 10 8 6 6 6 6 5 5 5 5 5 5 6 6 7 7 6 6 5 5 5 4 3 4 6 6 6 9 10 9 8 9 9 10 10 11 12 12 13 13
12 9 8 8 8 6 5 5 5 6 6 6 6 6 6 6 6 6 7 6 5 5 5 5 5 4 4 5 6 6 6 8 11 9 8 8 9 10 10 11 12 12 12 14
9 10 11 11 10 9 7 6 5 5 5 5 6 6 7 8 8 8 7 6 5 5 6 5 4 4 5 5 6 6 7 7 7 8 8 9 10 10 11 11 12 14 12 13
9 10 9 9 8 7 6 5 5 4 4 5 6 7 7 7 7 6 6 7 6 6 4 3 4 5 6 6 8 7 7 8 8 9 9 12 12 10 10 11 11 12 12 12
9 10 10 9 7 6 5 4 4 3 3 5 5 6 6 6 6 6 7 6 5 3 1 2 4 5 6 7 9 7 8 9 10 10 10 10 10 10 10 11 11 11 11 11
11 10 9 8 6 5 4 4 3 3 3 5 6 6 6 5 6 5 5 4 2 2 3 4 4 5 6 8 10 8 8 9 10 10 10 10 10 10 10 11 11 11 11 11
8 8 8 6 6 4 3 3 3 3 3 4 4 4 5 5 5 4 4 2 0 2 3 4 4 7 10 12 8 8 8 9 9 9 9 9 9 10 10 11 11 11 11 11
7 6 6 5 5 4 4 3 3 3 3 3 4 4 4 4 3 3 1 1 1 4 5 5 7 12 15 10 7 8 9 9 9 9 9 9 9 10 10 12 11 11 11 11
6 6 5 5 5 5 4 3 3 3 4 4 4 4 4 3 2 2 2 2 4 7 5 7 12 13 14 7 7 7 8 8 8 8 9 9 9 10 10 11 11 11 11 12
5 5 4 5 4 3 4 5 6 6 6 6 6 6 5 3 2 1 2 3 5 7 5 7 11 12 8 6 7 7 8 8 9 10 10 10 10 10 10 10 10 10 10 11
4 4 3 3 3 4 4 4 4 4 5 5 4 4 3 2 2 1 2 3 5 7 6 6 7 8 6 7 8 9 9 10 10 9 10 10 11 11 10 10 13 10 10 10
5 5 4 4 4 4 4 5 5 5 4 4 4 3 2 2 2 2 3 4 4 5 5 6 6 6 7 8 9 9 9 9 9 9 10 9 9 9 10 11 10 10 10 10
Wind_Direction
218 171 180 195 200 204 214 222 231 229 231 230 215 185 166 166 167 169 170 171 171 169 165 160 154 149 141 136 132 125 107 67 28 3 356 350 345 336 327 321 318 317 316 316
193 189 199 211 210 208 216 222 232 242 241 236 183 156 161 167 170 173 173 173 172 170 167 163 156 149 145 141 135 129 106 37 4 349 348 343 334 325 318 315 316 317 316 316
182 156 175 230 220 214 218 223 226 234 237 183 177 179 173 170 173 176 173 172 172 172 167 157 151 148 148 142 138 132 85 6 352 345 338 331 322 316 315 315 316 315 316 316
141 158 219 225 229 216 221 226 226 235 246 192 179 142 129 149 162 163 165 167 167 162 152 145 142 142 138 137 140 137 39 356 349 336 327 321 316 315 316 315 313 312 314 313
175 215 253 243 187 187 204 226 219 217 174 138 129 123 119 115 136 144 152 152 150 146 142 141 142 141 142 146 150 143 6 348 338 327 320 316 316 316 315 312 311 312 311 310
188 216 237 235 142 165 170 228 187 182 160 150 157 165 149 137 128 125 128 132 134 135 136 138 139 145 154 155 154 32 353 331 322 317 313 311 310 310 310 309 308 309 307 308
212 234 261 107 144 167 197 240 147 160 152 155 162 116 118 128 125 127 129 131 133 135 136 136 141 151 153 145 66 9 327 315 313 311 308 304 304 306 307 307 307 308 309 310
199 224 240 137 157 189 105 117 136 139 138 128 111 107 117 126 130 133 133 135 138 136 131 134 143 148 142 111 37 334 315 309 307 306 304 299 304 306 309 311 310 312 312 312
197 212 55 166 196 129 143 138 135 134 131 127 125 127 128 133 138 142 143 143 143 139 135 137 138 138 136 72 353 319 308 304 302 301 300 301 305 309 312 313 312 313 312 313
169 187 168 163 136 133 138 129 126 126 128 129 128 133 134 138 145 148 150 149 147 144 145 146 147 150 138 355 319 302 297 299 300 301 304 308 308 306 311 313 312 312 314 316
156 151 139 163 153 135 118 116 114 109 110 125 129 135 141 146 154 155 153 151 152 154 156 154 157 167 185 290 288 286 290 293 298 300 304 307 306 306 307 303 305 309 311 313
188 180 169 169 155 142 133 131 130 122 115 114 128 136 139 144 152 156 155 153 154 159 159 156 165 191 234 259 266 277 286 296 302 303 305 306 309 306 297 295 302 303 303 304
117 142 131 138 138 137 131 128 126 126 129 128 122 130 138 142 152 156 158 162 165 165 161 161 179 218 238 248 259 271 284 296 300 301 305 307 309 310 311 310 307 304 304 306
132 123 130 146 142 129 119 114 107 101 104 118 125 133 138 141 154 165 168 166 159 157 163 178 207 233 245 252 262 276 286 290 294 299 302 304 306 308 309 312 314 313 312 311
129 117 136 128 119 112 111 115 115 119 124 126 138 151 158 162 168 170 160 151 151 165 184 202 228 246 252 258 271 283 289 294 299 300 300 301 304 305 306 307 308 310 312 314
107 98 115 122 124 122 122 128 138 151 159 164 169 174 175 172 165 158 157 159 170 192 203 218 241 257 262 267 280 284 286 294 302 302 301 303 305 304 305 306 307 309 312 315
131 133 132 134 140 145 150 153 156 161 171 182 185 176 168 164 166 172 174 181 194 207 217 235 252 265 269 276 286 290 295 298 300 299 299 301 302 303 303 304 306 308 307 311
151 150 154 154 156 155 155 158 162 166 176 183 177 175 181 187 193 191 183 180 196 220 236 243 255 268 273 284 292 291 292 295 298 298 299 300 302 302 304 305 305 304 307 312
119 124 125 129 135 136 139 151 165 171 170 171 178 191 200 204 202 188 175 183 204 229 234 223 255 274 285 291 297 292 291 294 296 297 299 301 303 301 302 302 303 305 306 308
110 113 112 111 110 113 122 129 141 157 172 180 187 196 202 203 194 183 184 202 219 241 273 277 278 283 292 297 299 289 290 294 299 301 301 300 302 303 303 302 302 303 304 306
122 121 118 116 111 108 115 129 148 168 176 185 195 202 200 190 181 178 189 215 211 223 262 278 287 295 299 298 296 292 297 300 300 299 300 301 302 302 301 301 301 301 303 305
123 122 119 117 117 112 105 120 147 161 168 179 189 183 172 168 172 183 208 239 34 304 290 286 292 300 305 304 300 302 300 299 298 299 298 299 299 298 298 299 299 301 304 307
114 112 114 115 116 113 105 111 134 152 159 164 166 166 165 157 160 175 195 136 314 303 298 295 304 307 311 309 303 301 299 297 296 295 295 296 294 293 294 297 300 304 306 306
108 107 105 106 117 129 130 113 104 104 105 100 104 118 125 127 118 84 50 354 324 312 301 301 308 312 315 310 303 297 295 293 293 294 293 292 291 293 296 299 301 302 303 305
106 109 120 136 143 137 124 118 109 105 102 94 88 80 70 63 75 56 344 320 317 314 303 305 311 315 314 300 296 294 293 291 291 293 294 296 297 297 296 298 300 303 303 303
115 120 118 112 110 120 127 129 122 120 118 112 99 82 69 55 37 356 325 314 309 309 309 304 305 307 300 297 295 294 293 295 296 296 294 295 295 296 298 301 302 300 299 299
112 114 112 101 88 99 111 114 114 112 110 114 111 92 57 28 0 340 325 315 311 307 302 300 299 297 296 295 295 294 294 295 296 296 296 296 296 296 297 298 296 295 295 295